Starlink 30203

operational
NORAD ID: 57498 Int'l Des: 2023-113 Owner: SPXS Country: US Constellation: starlink
LEOCIRCULAR

About Starlink 30203

Description loading...

Live Position

Loading 3D Globe...

Upcoming Passes

Altitude History

Altitude vs Time

uPlot chart will show altitude changes over time

Two-Line Element Set

1 57498U 23113D 25261.26734891 .00000360 00000-0 41734-4 0 9991
2 57498 43.0032 234.2158 0001144 279.5880 80.4833 15.02535229117741
Epoch: Sep 18, 2025 • Age: 7 hours

Current Status

Altitude 558.6 km
Velocity 7.59 km/s
Sub-Earth Point 15.06°N, 164.24°W
Launch Date Aug 7, 2023
Age 2.1 years
Type internet

Technical Details

Classification Payload
Mass 730.00 kg
Dry Mass 700.00 kg
Total Mass 730.00 kg
Length 0.30 m
Diameter 4.10 m
Span 29.00 m
Shape Box + pan
Manufacturer SPXS
Bus Type Starlink V2M
Phase Status In Orbit
Owner/State SPXS/US

Large Constellations

Loading constellations...